This is the latest recevied weather packets stored in our database for station/object IU0SZS-10. If no packets are shown the sender has not sent any weather packets the latest 10 day(s).
| Time | Temp. | Humidity | Pressure | Rain* | Wind** | Luminosity | Snow |
|---|---|---|---|---|---|---|---|
| 1777435152 | 11.67° C | 47% | 916.4 hPa | - | - | - | - |
| 1777435101 | 11.67° C | 47% | 916.4 hPa | - | - | - | - |
| 1777434201 | 12.22° C | 47% | 916.4 hPa | - | - | - | - |
| 1777433301 | 12.22° C | 44% | 916.5 hPa | - | - | - | - |
| 1777432401 | 12.22° C | 43% | 916.4 hPa | - | - | - | - |
| 1777431500 | 12.22° C | 43% | 916.5 hPa | - | - | - | - |
| 1777430600 | 12.22° C | 42% | 916.4 hPa | - | - | - | - |
| 1777429696 | 12.22° C | 42% | 916.5 hPa | - | - | - | - |
| 1777428796 | 12.22° C | 44% | 916.4 hPa | - | - | - | - |
| 1777427896 | 12.78° C | 45% | 916.3 hPa | - | - | - | - |
| 1777426996 | 12.78° C | 46% | 916.4 hPa | - | - | - | - |
| 1777426096 | 12.78° C | 45% | 916.4 hPa | - | - | - | - |
| 1777425196 | 12.78° C | 44% | 916.5 hPa | - | - | - | - |
| 1777424295 | 12.78° C | 47% | 916.6 hPa | - | - | - | - |
| 1777423395 | 12.78° C | 49% | 916.5 hPa | - | - | - | - |
| 1777422492 | 13.33° C | 48% | 916.6 hPa | - | - | - | - |
| 1777421592 | 13.33° C | 51% | 916.7 hPa | - | - | - | - |
| 1777420687 | 13.33° C | 50% | 916.7 hPa | - | - | - | - |
| 1777419787 | 13.89° C | 50% | 916.8 hPa | - | - | - | - |
| 1777418887 | 13.89° C | 51% | 916.7 hPa | - | - | - | - |
| 1777417987 | 13.89° C | 50% | 916.9 hPa | - | - | - | - |
| 1777417086 | 13.89° C | 50% | 916.9 hPa | - | - | - | - |
| 1777416186 | 13.89° C | 51% | 917.1 hPa | - | - | - | - |
| 1777415285 | 13.33° C | 51% | 917.1 hPa | - | - | - | - |
| 1777414385 | 13.89° C | 51% | 917.2 hPa | - | - | - | - |
* Rain since midnight (hover to see other rain measurements)
** Current wind speed in m/s (hover to see current wind gust speed)